Find Starlink 31720

NORAD ID: 59497 Int'l Des: 2024-071 Owner: SPXS Country: US Constellation: starlink operational
LEOCIRCULAR

实时位置

正在加载3D地球...

关于 Starlink 31720

正在加载描述...

即将过境

Passes for default location (London). Set your location on the main map for personalized predictions.

高度历史

Loading altitude history...

两行轨道根数

1 59497U 24071P 26132.26779959 .00001337 00000-0 58102-4 0 9990
2 59497 43.0023 341.1583 0001545 273.1648 86.9027 15.27582162117920
Epoch: May 12, 2026 • Age: 9 hours

当前状态

高度 491.6 km
速度 7.62 km/s
星下点 -33.81°S, 171.09°W
发射日期 Apr 13, 2024
运行时间 2 years
类型 internet

技术详情

分类 Payload
质量 730.00 kg
干质量 700.00 kg
总质量 730.00 kg
长度 0.30 m
直径 4.10 m
跨度 29.00 m
形状 Box + pan
制造商 SPXS
平台类型 Starlink V2M
阶段状态 In Orbit
所有者/国家 SPXS/US

Most Searched